Погода в Герменчике

Россия / Республика Дагестан     43°32′23″N   46°43′35″E
темп.,
°C
ветер,
м/с
пор.,
м/с
влажн.,
%
обл.,
%
осадки,
мм/ч
давл.,
гПа
погр.,
м
4 марта, чт
чт400:00+4з7117499 0.1 1024965
03:00+3з6127795 0.2 1025634
06:00+2з6127655 0.1 1027518
09:00+4зсз796028 0.1 10271139
12:00+8зсз56450 0.0 10261273
15:00+9зсз34360 0.0 10241354
18:00+6ссв22450 0.0 102524
21:00+3вюв37740 0.0 1025145
5 марта, пт
пт500:00+2вюв33830 0.0 102362
03:00+1вюв22870 0.0 102224
06:000в11870 0.0 102122
09:00+5в12670 0.0 1021303
12:00+10вюв33460 0.0 1019773
15:00+12вюв33400 0.0 10181014
18:00+7вюв47740 0.0 1019188
21:00+5вюв36860 0.0 1020123
6 марта, сб
сб600:00+4вюв36870 0.0 1020107
03:00+3вюв33850 0.0 101952
06:00+3юв22860 0.0 101922
09:00+8юв11575 0.0 1018170
12:00+14вюв33317 0.0 1016440
15:00+16вюв573128 0.0 1014419
18:00+9вюв49506 0.0 1015158
21:00+8в476037 0.0 1014132
7 марта, вс
вс700:00+7вюв2364100 0.0 101357
03:00+4сз2375100 0.0 101342
06:00+6сз81378100 0.0 1017804
09:00+3сз81186100 0.9 1021879
12:00+6сз101352100 0.4 10221642
15:00+6сз8103785 0.4 10221743
18:00+3сз36450 0.0 1023149
21:00+1ссз24510 0.0 102585
8 марта, пн
пн800:00−1сз11590 0.0 102321
03:00−1св11600 0.0 102321
06:00−1с11600 0.0 102321
09:00+3ссв11440 0.0 1022367
12:00+6вюв44480 0.0 10201380
15:00+6в455846 0.0 10181150
18:00+4вюв3669100 0.1 1019494
21:00+2вюв238185 0.1 102089